Theta_e
361 361 361 361 362 361 359 359 357 355 355 349 358 355 353 355 357 354 355 356 353 356 355 356 354 354 354 355 354 355 352 352 355 352 347 351 351 352 353 351 353 356 350
360 359 361 361 361 362 362 358 361 359 359 358 352 357 356 356 355 356 356 357 355 356 358 358 356 357 355 355 354 353 356 354 347 353 351 353 354 348 345 349 346 346 350
359 359 360 362 362 362 362 362 358 360 359 357 360 354 358 358 358 357 357 358 358 356 356 354 356 356 356 353 356 356 355 356 355 355 355 350 349 351 352 350 349 350 350
355 360 360 360 361 361 361 362 362 358 360 360 358 360 356 360 362 363 362 359 359 359 358 357 356 355 355 356 355 354 352 351 352 353 354 354 352 348 350 355 353 354 355
351 355 358 360 360 360 360 360 360 360 359 360 360 360 359 360 360 361 360 359 359 358 357 355 355 356 358 357 356 354 352 356 353 354 352 352 352 351 355 355 355 354 354
346 353 356 354 360 360 360 360 360 360 359 359 360 361 360 360 360 358 357 359 359 358 358 354 352 354 356 355 356 352 355 354 352 350 352 353 354 354 354 356 355 354 352
346 348 355 353 359 360 360 361 361 359 360 360 361 361 361 359 359 357 356 357 361 361 359 355 348 354 355 349 343 354 350 349 346 351 352 351 352 353 356 351 348 348 348
346 346 352 356 354 355 356 357 358 358 358 360 360 361 362 360 360 360 355 356 355 359 359 357 355 354 353 342 350 353 347 345 349 351 353 352 348 352 346 345 345 346 348
342 346 351 355 354 351 354 355 355 357 357 360 360 361 360 361 362 359 359 357 356 357 357 358 357 356 355 355 354 354 354 353 354 353 349 349 347 344 347 347 346 348 350
339 346 348 350 353 351 351 355 355 355 355 356 357 357 358 359 360 357 355 355 356 356 355 356 355 354 353 353 353 353 352 353 352 352 352 348 347 347 349 349 348 350 348
340 345 347 351 352 352 350 350 347 350 347 345 352 352 352 352 354 354 354 353 352 353 354 354 355 354 353 354 353 353 353 354 353 352 351 349 344 348 349 347 348 347 345
330 341 342 349 351 352 352 350 350 351 351 351 352 351 351 347 345 346 342 348 350 351 352 353 353 352 351 351 351 351 351 350 344 344 343 342 343 346 347 346 344 342 343
327 337 344 347 350 352 352 353 352 350 351 348 349 344 341 342 343 342 340 341 343 344 340 342 349 346 345 344 343 342 340 339 340 340 340 342 345 346 344 343 342 343 344
325 336 343 343 344 346 349 350 350 349 348 344 342 341 339 341 339 338 337 338 338 338 339 338 336 337 341 342 341 340 339 339 339 341 343 345 345 343 342 342 341 342 342
330 334 337 338 338 337 338 338 339 339 341 341 340 341 338 338 337 337 337 338 339 338 337 337 338 338 338 338 338 340 340 340 341 341 341 342 342 341 338 338 338 337 338
327 329 336 338 335 333 332 331 335 336 337 338 336 337 337 336 338 338 339 339 337 338 338 339 338 338 336 336 337 337 338 338 338 338 337 335 335 334 334 334 334 334 335
320 321 325 328 338 338 334 329 326 325 329 334 336 337 337 337 336 335 336 337 336 335 336 335 337 338 337 336 334 336 335 335 334 334 332 332 330 328 330 331 332 333 331
319 320 321 323 324 333 335 334 333 331 328 326 328 331 333 333 332 331 329 329 331 333 333 331 332 334 332 333 332 331 331 332 329 329 330 328 328 326 327 328 326 329 324
315 315 317 320 322 323 323 325 328 331 331 327 326 326 327 329 330 329 329 333 333 332 332 332 327 328 330 328 329 327 328 329 329 329 324 322 320 319 319 322 321 321 319
312 313 317 315 318 320 322 322 320 321 321 318 318 317 319 324 328 329 328 330 331 330 330 331 331 329 326 324 325 324 323 323 323 321 319 319 317 316 317 319 319 319 319
312 311 313 313 314 316 315 315 317 320 323 322 319 313 312 319 324 327 330 328 329 327 328 329 330 330 329 326 325 324 326 326 322 318 319 317 317 316 317 317 317 317 316
312 312 312 312 313 313 313 313 314 316 316 316 316 315 314 316 316 317 319 319 320 321 323 323 325 328 329 327 326 326 324 322 320 319 317 318 316 315 316 316 316 315 315
312 312 311 311 313 312 314 313 313 313 314 314 314 314 314 315 315 316 316 316 316 316 317 318 318 320 320 319 323 326 324 322 321 319 317 317 316 315 315 315 315 315 315
313 313 313 313 313 313 313 314 313 313 313 313 313 313 313 314 314 313 314 313 314 315 316 316 316 316 316 316 318 321 323 323 322 322 320 319 317 317 315 315 315 315 316
313 313 313 314 314 314 314 314 314 314 314 314 314 313 313 313 313 313 313 313 313 313 313 313 313 313 313 313 314 316 317 315 316 317 319 321 317 316 315 315 315 315 315
314 313 314 314 314 315 314 314 314 314 314 313 313 313 314 314 313 313 313 313 313 314 314 313 313 313 313 312 312 311 311 311 311 311 312 313 315 318 317 316 316 316 314
Wind_Speed
39 36 34 33 32 32 32 27 29 29 23 30 23 31 31 29 28 29 29 25 24 26 25 22 21 18 17 17 19 20 17 14 4 14 18 18 22 19 21 24 23 22 26
41 38 37 35 34 33 34 33 27 29 28 24 26 28 29 28 28 29 30 28 29 26 21 25 25 21 22 21 22 24 21 17 16 13 19 19 20 25 28 27 30 28 28
32 39 36 36 35 35 35 34 34 30 31 32 25 29 28 28 29 31 31 30 30 28 28 28 26 24 23 22 23 19 19 12 12 10 16 22 27 29 29 31 32 29 26
33 29 36 35 37 37 36 33 33 35 32 32 31 28 31 30 29 28 29 29 29 28 26 23 26 25 25 26 27 27 23 21 16 15 20 21 18 23 24 21 25 23 25
27 26 19 36 35 35 34 36 35 35 34 33 34 33 31 32 32 30 29 30 30 31 30 30 27 26 26 29 22 23 24 21 18 17 16 18 19 19 19 21 21 24 28
27 25 24 23 34 35 34 34 37 36 36 34 34 35 34 32 33 36 35 35 34 35 33 26 27 34 28 28 25 24 28 24 22 23 17 15 20 20 19 18 19 16 11
27 26 25 23 21 34 35 33 33 35 34 35 35 34 35 36 35 37 38 41 33 32 32 27 31 34 34 24 26 31 22 33 19 32 24 18 18 19 19 19 19 18 20
28 28 25 22 15 22 32 31 32 31 31 31 32 35 35 37 38 38 43 37 35 34 30 23 32 40 34 23 22 16 24 39 31 30 26 19 17 15 19 17 18 22 21
30 28 27 24 19 16 24 30 32 28 29 28 31 33 34 35 37 39 41 41 33 31 29 29 27 27 25 26 28 18 19 21 19 19 22 22 18 16 13 13 14 13 13
30 29 26 28 23 21 23 24 20 23 25 25 26 32 34 36 37 38 38 39 33 31 32 32 32 33 34 30 28 29 22 22 19 18 16 11 12 14 11 11 12 8 9
30 30 28 29 26 27 25 25 24 26 20 22 27 28 30 26 30 28 32 32 34 31 36 28 26 30 25 29 28 25 22 20 15 14 15 14 14 12 6 5 8 10 10
36 33 32 30 25 25 26 25 24 22 23 19 19 16 11 5 8 11 16 20 25 34 38 30 19 14 13 16 18 20 20 17 10 11 12 15 15 11 10 9 13 12 10
34 31 29 18 15 16 20 22 20 16 15 10 8 6 3 6 5 8 10 6 2 9 20 14 16 3 5 7 8 10 11 11 12 11 15 17 15 8 7 9 10 9 10
30 25 13 7 5 5 5 8 13 11 12 11 10 6 6 6 6 3 4 2 0 4 12 17 9 6 9 8 10 12 12 11 11 12 13 12 8 5 5 5 7 9 9
24 17 9 8 16 20 20 17 17 14 11 9 6 5 8 6 7 6 5 4 3 2 3 7 13 12 12 13 12 11 10 8 9 9 10 7 6 5 6 4 4 7 9
12 10 12 13 12 19 25 26 17 14 11 12 10 8 9 5 2 5 9 8 8 9 9 11 13 14 14 12 12 12 9 7 4 4 1 3 6 8 6 0 5 5 6
23 18 22 21 9 17 17 18 18 20 18 14 10 8 8 8 6 6 6 5 4 2 1 4 7 8 8 3 2 4 3 1 3 3 3 4 4 3 2 2 6 5 3
26 28 33 33 32 4 13 17 16 14 15 15 18 19 16 11 9 8 11 8 5 3 6 9 11 4 7 5 2 2 6 6 3 6 7 5 2 3 7 5 4 3 3
32 29 33 26 24 21 13 21 19 15 14 13 13 13 13 10 6 5 5 3 2 3 5 5 9 10 8 7 6 8 7 6 5 7 5 4 3 5 8 6 5 4 1
17 27 30 24 5 7 10 14 14 16 12 16 16 12 4 3 4 2 4 3 2 3 7 9 9 8 8 9 11 10 7 6 6 7 8 7 7 6 9 6 4 5 5
21 24 25 23 21 13 14 11 7 5 10 16 13 12 3 2 2 7 3 1 1 5 3 6 8 11 14 13 13 12 13 13 11 8 9 8 6 6 8 5 5 5 4
7 10 6 12 16 11 12 12 12 10 10 10 11 9 5 3 6 5 2 2 5 7 8 11 9 7 14 19 20 19 19 16 11 13 10 10 12 8 8 8 9 7 6
12 9 12 16 8 13 10 10 8 8 7 9 9 7 9 7 5 6 6 4 3 4 7 8 10 11 13 13 6 23 22 10 8 17 18 14 14 12 10 10 9 6 7
8 8 8 6 7 8 8 9 7 4 8 10 9 8 8 8 8 6 6 9 10 9 7 7 8 9 13 13 13 8 2 4 9 10 10 7 17 19 20 15 10 13 8
8 8 9 9 8 8 9 10 10 9 8 7 10 10 9 7 7 7 7 6 5 5 7 9 12 15 14 15 13 12 5 8 6 7 11 13 9 6 5 8 10 7 13
5 7 7 7 8 9 10 10 9 8 7 10 9 8 6 9 10 10 13 15 15 17 16 16 15 15 15 14 18 14 10 11 8 9 8 10 11 14 23 22 20 24 17
Wind_Direction
195 198 202 208 214 219 225 232 228 231 231 238 214 209 210 213 218 224 229 233 240 238 238 242 248 248 260 269 280 291 311 313 340 313 318 321 317 313 305 303 300 290 301
194 197 200 204 210 217 222 225 229 226 233 232 227 211 211 215 219 223 227 231 240 243 238 237 245 255 246 252 264 275 286 289 301 298 310 304 297 295 297 293 296 294 286
203 196 200 202 206 215 221 223 222 227 227 231 232 223 219 220 221 223 228 233 239 245 248 240 240 238 243 251 252 261 265 277 273 286 288 295 298 298 290 297 303 298 290
347 208 200 205 207 211 218 222 223 222 223 227 227 230 226 226 228 227 228 234 238 243 249 249 248 242 245 244 250 252 256 260 269 276 278 278 303 312 307 328 325 320 320
335 333 260 208 211 212 214 218 221 222 223 224 226 230 232 229 229 228 230 233 236 240 244 248 249 248 238 246 249 256 254 253 248 259 280 291 295 304 316 317 313 314 311
325 316 311 304 214 213 216 216 216 217 221 223 226 228 231 232 231 234 233 231 232 237 235 242 252 256 259 253 248 248 243 234 252 269 261 269 285 297 307 310 310 313 316
311 308 306 297 251 217 219 219 218 218 216 219 224 228 231 234 237 237 240 234 232 234 240 225 247 253 246 251 274 244 283 282 278 264 257 258 281 294 301 308 313 309 299
298 301 296 284 282 239 236 237 231 223 221 223 228 230 232 235 236 237 240 250 245 239 242 242 232 233 242 252 243 247 237 248 237 243 250 268 284 278 294 306 306 306 303
293 291 289 282 260 261 240 238 237 234 232 226 229 234 238 242 241 240 239 240 239 240 243 248 243 243 247 248 259 253 241 241 244 249 275 278 263 282 292 301 300 305 311
290 289 287 291 270 246 241 236 233 231 242 247 247 244 242 242 248 251 251 246 248 250 246 243 245 248 252 246 249 254 259 261 263 259 261 250 273 286 289 283 284 289 315
305 298 295 280 260 250 243 233 247 247 240 245 250 271 267 275 273 267 269 258 252 252 254 242 237 237 244 244 242 246 252 250 238 239 245 261 281 265 246 295 271 290 299
299 290 289 284 257 237 236 237 235 236 238 241 253 248 267 281 313 295 308 279 269 253 246 245 229 228 218 224 229 235 237 234 243 257 271 272 271 274 274 269 289 293 288
295 290 283 274 264 246 232 230 217 230 236 213 200 163 164 242 274 291 286 250 134 98 49 16 121 163 214 239 245 250 242 243 255 258 263 266 277 256 264 296 300 287 300
285 280 240 217 152 181 125 192 160 170 156 143 139 127 130 129 126 137 183 221 130 287 289 275 270 329 294 268 249 245 238 239 244 248 271 265 247 262 276 270 287 276 272
280 252 250 160 134 116 109 106 113 121 134 133 145 182 191 199 227 236 250 207 204 197 198 197 197 203 240 256 260 246 234 218 219 256 266 269 250 230 247 237 266 304 320
54 20 246 179 142 115 107 97 98 107 113 113 110 122 168 187 180 233 229 243 252 240 217 224 204 214 221 221 232 240 247 239 228 249 61 59 75 56 52 49 360 345 352
59 49 40 29 132 144 133 117 105 95 101 110 123 129 123 132 146 158 170 196 254 204 219 349 279 204 181 123 226 263 331 33 323 354 359 26 354 359 325 284 278 259 315
48 41 48 40 17 53 133 121 123 115 104 92 90 93 100 115 124 143 123 121 132 156 134 92 70 138 128 151 160 201 234 216 250 200 212 246 218 248 260 237 259 290 66
50 43 51 42 34 27 11 98 102 109 109 109 101 101 106 120 149 153 154 171 234 204 176 176 168 187 185 179 190 199 200 208 224 211 230 247 220 244 262 255 275 264 246
54 58 53 50 350 244 91 89 99 111 117 110 93 73 60 164 156 216 209 225 289 287 181 186 192 191 192 193 218 226 225 232 240 236 221 229 224 248 277 282 262 311 282
35 44 42 38 41 44 41 26 61 93 131 124 95 55 45 318 38 127 183 211 318 316 4 300 232 208 210 204 205 210 216 220 215 208 214 220 247 254 283 262 277 283 298
92 91 107 102 83 73 57 33 33 55 59 48 109 72 49 351 44 40 104 46 346 355 356 0 344 257 226 220 211 208 217 217 216 210 208 210 194 229 247 254 245 239 260
40 91 58 33 49 39 39 92 59 24 68 71 68 58 59 40 19 40 14 352 348 24 352 346 343 333 348 13 326 225 231 239 256 212 200 211 209 224 230 244 278 293 279
39 40 55 84 42 70 27 33 36 46 25 34 36 40 27 23 3 9 34 15 5 5 1 348 337 328 328 338 347 20 119 280 283 307 349 278 227 223 222 217 244 267 269
79 29 30 13 30 17 14 16 24 16 17 18 27 16 0 352 332 351 352 0 354 325 341 8 354 341 330 327 326 323 349 327 332 329 321 280 317 346 359 4 345 339 335
25 39 357 344 349 6 20 8 344 332 3 9 349 314 331 351 340 0 13 5 13 15 20 16 6 352 349 6 11 22 2 348 338 315 301 287 282 274 263 270 277 274 248